This is the latest recevied weather packets stored in our database for station/object KC4MCQ-10. If no packets are shown the sender has not sent any weather packets the latest 10 day(s).
| Time | Temp. | Humidity | Pressure | Rain* | Wind** | Luminosity | Snow |
|---|---|---|---|---|---|---|---|
| 1787461613 | 26.11° C | 87% | 1016.1 hPa | 0 mm | 0.45 m/s, 227° | - | - |
| 1787461012 | 26.11° C | 87% | 1016 hPa | 0 mm | 0.45 m/s, 242° | - | - |
| 1787460411 | 26.11° C | 87% | 1016.1 hPa | 0 mm | 0.89 m/s, 211° | - | - |
| 1787459808 | 26.11° C | 87% | 1016 hPa | 0 mm | 0.45 m/s, 294° | - | - |
| 1787459207 | 26.11° C | 87% | 1016 hPa | 0 mm | 1.34 m/s, 297° | - | - |
| 1787458596 | 26.11° C | 87% | 1016 hPa | 0 mm | 0 m/s | - | - |
| 1787457993 | 26.11° C | 87% | 1015.6 hPa | 0 mm | 0 m/s | - | - |
| 1787457392 | 26.11° C | 87% | 1016 hPa | 0 mm | 0.89 m/s, 296° | - | - |
| 1787456788 | 26.11° C | 87% | 1015.8 hPa | 0 mm | 0.45 m/s, 270° | - | - |
| 1787456187 | 25.56° C | 88% | 1015.5 hPa | 0 mm | 0.45 m/s, 185° | - | - |
| 1787455585 | 25.56° C | 88% | 1015.4 hPa | 0 mm | 0.45 m/s, 150° | - | - |
| 1787454978 | 25.56° C | 88% | 1015.5 hPa | 0 mm | 0.45 m/s, 200° | - | - |
| 1787454377 | 25.56° C | 88% | 1015.9 hPa | 0 mm | 0.89 m/s, 325° | - | - |
| 1787453776 | 26.11° C | 87% | 1016 hPa | 0 mm | 0.45 m/s, 325° | - | - |
| 1787453175 | 26.11° C | 88% | 1016.3 hPa | 0 mm | 0 m/s | - | - |
| 1787452574 | 25.56° C | 88% | 1016.4 hPa | 0 mm | 0 m/s | - | - |
| 1787451973 | 25.56° C | 87% | 1016.2 hPa | 0 mm | 0 m/s | - | - |
| 1787451372 | 26.11° C | 87% | 1016.3 hPa | 0 mm | 0 m/s | - | - |
| 1787449568 | 25.56° C | 87% | 1015.8 hPa | 0 mm | 0.89 m/s, 271° | - | - |
| 1787448968 | 25.56° C | 87% | 1015.9 hPa | 0 mm | 0.45 m/s, 144° | - | - |
| 1787448366 | 25.56° C | 87% | 1015.6 hPa | 0 mm | 0.89 m/s, 144° | - | - |
| 1787447765 | 25.56° C | 87% | 1015.6 hPa | 0 mm | 0 m/s | - | - |
| 1787447164 | 25.56° C | 86% | 1015.7 hPa | 0 mm | 0 m/s | - | - |
| 1787446563 | 26.11° C | 85% | 1015.6 hPa | 0 mm | 0 m/s | - | - |
| 1787445956 | 26.67° C | 85% | 1015.3 hPa | 0 mm | 0 m/s | - | - |
* Rain latest 24 hours (hover to see other rain measurements)
** Current wind speed in m/s (hover to see current wind gust speed)